This is the latest recevied weather packets stored in our database for station/object KD8NVS-13. If no packets are shown the sender has not sent any weather packets the latest 10 day(s).
| Time | Temp. | Humidity | Pressure | Rain* | Wind** | Luminosity | Snow |
|---|---|---|---|---|---|---|---|
| 1778100432 | 14.44° C | 50% | 1002.1 hPa | 0 mm | - | 156 W/m² | - |
| 1778100129 | 15° C | 49% | 1002.5 hPa | 0 mm | - | 177 W/m² | - |
| 1778099828 | 15° C | 49% | 1002.5 hPa | 0 mm | - | 234 W/m² | - |
| 1778099524 | 15.56° C | 49% | 1002.1 hPa | 0 mm | - | 254 W/m² | - |
| 1778099222 | 15° C | 47% | 1001.8 hPa | 0 mm | - | 253 W/m² | - |
| 1778098917 | 15.56° C | 47% | 1002.1 hPa | 0 mm | - | 233 W/m² | - |
| 1778098615 | 15.56° C | 46% | 1002.1 hPa | 0 mm | - | 263 W/m² | - |
| 1778098311 | 15.56° C | 48% | 1002.1 hPa | 0 mm | - | 260 W/m² | - |
| 1778098008 | 15.56° C | 47% | 1002.1 hPa | 0 mm | - | 300 W/m² | - |
| 1778097705 | 15.56° C | 46% | 1002.1 hPa | 0 mm | - | 297 W/m² | - |
| 1778097401 | 15.56° C | 46% | 1002.1 hPa | 0 mm | - | 287 W/m² | - |
| 1778097098 | 16.11° C | 47% | 1002.1 hPa | 0 mm | - | 290 W/m² | - |
| 1778096795 | 15.56° C | 48% | 1002.1 hPa | 0 mm | - | 319 W/m² | - |
| 1778096491 | 16.11° C | 48% | 1002.1 hPa | 0 mm | - | 295 W/m² | - |
| 1778096189 | 15.56° C | 48% | 1002.1 hPa | 0 mm | - | 273 W/m² | - |
| 1778095886 | 15.56° C | 49% | 1001.8 hPa | 0 mm | - | 258 W/m² | - |
| 1778095583 | 15° C | 50% | 1001.5 hPa | 0 mm | - | 106 W/m² | - |
| 1778095279 | 15° C | 49% | 1001.8 hPa | 0 mm | - | 212 W/m² | - |
| 1778094976 | 15° C | 49% | 1002.1 hPa | 0 mm | - | 271 W/m² | - |
| 1778094672 | 15.56° C | 48% | 1002.1 hPa | 0 mm | - | 149 W/m² | - |
| 1778094370 | 15° C | 49% | 1002.5 hPa | 0 mm | - | 242 W/m² | - |
| 1778094066 | 15° C | 50% | 1002.5 hPa | 0 mm | - | 260 W/m² | - |
| 1778093763 | 15° C | 50% | 1001.8 hPa | 0 mm | - | 291 W/m² | - |
| 1778093459 | 15° C | 50% | 1002.1 hPa | 0 mm | - | 342 W/m² | - |
| 1778093157 | 15° C | 50% | 1002.1 hPa | 0 mm | - | 342 W/m² | - |
* Rain latest hour (hover to see other rain measurements)
** Current wind speed in m/s (hover to see current wind gust speed)